Regional Weather Roundup
Issued by NWS

Home | Current Version | Previous Version | Graphics & Text | Print | Product List | Glossary Off
Versions: 1 2 3 4 5 6 7 8 9 10 11 12 13 14 15 16 17 18 19 20 21 22 23 24 25 26 27 28 29 30 31 32 33 34 35 36 37 38 39 40 41 42 43 44 45 46 47 48 49 50

000
ASUS45 KSLC 281910
RWRUT

UTAH REGIONAL WEATHER ROUNDUP
NATIONAL WEATHER SERVICE SALT LAKE CITY UT
100 PM MDT SAT MAR 28 2015

UTZ001>011-023>025-282000-

NORTHERN UTAH

CITY           SKY/WX    TMP DP  RH WIND       PRES   REMARKS
BRIGHAM CITY   PTSUNNY   67  29  24 SW14G21   30.12S
HILL AFB       MOSUNNY   67  26  21 W13G18    30.15F
LOGAN          SUNNY     66  34  30 W8        30.10F
OGDEN          MOSUNNY   69  26  20 W8        30.14S
PROVO AIRPORT  MOSUNNY   63  41  45 VRB5      30.15S
SALT LAKE CITY MOSUNNY   71  29  21 N3        30.13F
VERNAL         SUNNY     67  28  23 CALM      30.12F
WENDOVER       SUNNY     75  18  11 W24       30.14S
HEBER CITY     MOSUNNY   70  27  19 SW15G21   30.14F
WEST JORDAN    SUNNY     70  34  26 N9        30.15S

$$

UTZ012>022-026-027-282000-

SOUTHERN/CENTRAL UTAH

CITY           SKY/WX    TMP DP  RH WIND       PRES   REMARKS
BLANDING       SUNNY     65  26  22 SW9       30.29F
BRYCE CANYON   SUNNY     63  23  21 VRB7      30.32F
CEDAR CITY     SUNNY     72  20  14 W6        30.21F
DELTA          SUNNY     74  23  14 W10       30.15S
HANKSVILLE     SUNNY     72  23  16 E3        30.16F
MILFORD        SUNNY     74  24  15 S14G24    30.16F
MOAB/CYNLANDS  SUNNY     71  24  17 VRB3      30.13F
PRICE          SUNNY     68  23  18 SE6       30.18F
ST GEORGE      PTCLDY    72  28  20 SW3       30.16F
KANAB          SUNNY     72  28  20 S8        30.24F

$$

REGIONAL REPORTS     COLORADO/ARIZONA

CITY           SKY/WX    TMP DP  RH WIND       PRES   REMARKS
CRAIG, CO      SUNNY     70  26  19 W18       30.14F
GRAND JUNCTION SUNNY     69  26  20 VRB5      30.14F
RIFLE          SUNNY     66  27  23 VRB3      30.16F
MONTROSE       SUNNY     71  22  15 MISG      30.19F
CORTEZ         SUNNY     70  24  17 W6        30.23F
PAGE, AZ       SUNNY     72  24  16 CALM      30.18F
GRAND CANYON   SUNNY     67  17  14 NW8G17    30.32F
KINGMAN        SUNNY     82  23  11 SW9G18    30.17S
FLAGSTAFF      SUNNY     69   7   9 SW16G24   30.33F

$$

REGIONAL REPORTS    NEVADA/IDAHO/WYOMING

CITY           SKY/WX    TMP DP  RH WIND       PRES   REMARKS
LAS VEGAS, NV  SUNNY     81  28  14 VRB3      30.05F
ELY            SUNNY     67  21  17 VRB5      30.25F
ELKO           MOSUNNY   65  21  18 W21G29    30.22S
POCATELLO, ID  MOSUNNY   62  35  36 W37G49    30.13R
BURLEY         LGT RAIN  55  31  39 W25G39    30.21R
EVANSTON, WY   MOSUNNY   62  24  23 W31G39    30.18F
ROCK SPRINGS   SUNNY     67  25  20 W26G37    30.10F
KEMMERER       SUNNY     61  27  27 SW32G41   30.14F

$$


USA.gov is the U.S. government's official web portal to all federal, state and local government web resources and services.